#timestamp,LO_Frequency,Hit,StdDev 
1459101615.9,286046996.8,N
1459101635.7,286046999.5,N
1459101655.5,286047001.1,N
1459101675.4,286047000.7,N
1459101695.2,286047001.2,N
1459101715.0,286047001.3,N
1459101715.9,286047001.3,N
1459101735.8,286047002.1,N
1459101755.6,286046999.7,N
1459101775.4,286047000.1,N
1459101795.3,286047004.2,N
1459101815.1,286047005.1,N
1459101816.0,286047005.1,N
1459101835.8,286047006.8,N
1459101855.7,286047007.3,N
1459101875.5,286047006.8,N
1459101895.3,286047008.3,N
1459101915.2,286047008.3,N
1459101935.9,286047007.7,N
1459101955.7,286047013.2,Y
1459101975.6,286047013.5,P
1459101995.4,286047012.2,N
1459102015.2,286047010.9,N
1459102035.1,286047011.4,N
1459102036.0,286047011.4,N
1459102055.8,286047014.9,Y
1459102075.6,286047003.6,P
1459102095.5,286047005.8,N
1459102115.3,286047003.7,N
1459102135.1,286047004.9,N
1459102155.9,286047005.8,N
1459102175.7,286047006.0,N
1459102195.5,286047003.4,N
1459102215.3,286047005.3,N
1459102235.2,286047003.7,N
1459102255.0,286047002.0,N
1459102255.9,286047002.0,N
1459102275.7,286047003.0,N
1459102295.6,286047003.4,N
1459102315.4,286047004.1,N
1459102335.2,286047002.2,N
1459102355.1,286047001.1,N
1459102356.0,286047001.1,N
1459102375.8,286046999.0,N
1459102395.6,286046997.0,N
1459102415.5,286046995.8,N
1459102435.3,286046998.3,N
1459102455.1,286047002.6,N
1459102475.9,286047003.5,N
1459102495.7,286047003.9,N
1459102515.5,286047001.8,N
1459102535.3,286047003.7,N
1459102555.2,286047003.8,N
1459102575.0,286047003.1,N
1459102575.9,286047003.1,N
1459102595.7,286047003.5,N
1459102615.6,286047003.7,N
1459102635.4,286047001.1,N
1459102655.2,286046996.9,N
1459102675.1,286046999.4,N
1459102676.0,286046999.4,N
1459102695.8,286046997.2,N
1459102715.6,286046999.6,N
1459102735.5,286046997.4,N
1459102755.3,286046993.6,N
1459102775.1,286046998.0,N
1459102795.9,286047001.2,N
1459102815.7,286047001.0,N
1459102835.5,286046999.4,N
1459102855.4,286047001.1,N
1459102875.2,286046999.4,N
1459102895.0,286046998.9,N
1459102895.9,286046998.9,N
1459102915.8,286046997.9,N
1459102935.6,286046995.1,N
1459102955.4,286046996.1,N
1459102975.2,286046991.9,N
1459102995.1,286046988.7,Y
1459102996.0,286046988.7,P
1459103015.8,286046988.9,N
1459103035.7,286046987.6,N
1459103055.5,286046985.6,N
1459103075.3,286046985.7,N
1459103095.1,286046985.8,N
1459103115.9,286046986.1,N
1459103135.7,286046986.2,Y
1459103155.5,286046999.5,P
1459103175.4,286046998.9,N
1459103195.2,286046999.4,N
1459103215.0,286046999.3,N
1459103215.9,286046999.3,N
1459103235.8,286046999.5,N
1459103255.6,286047001.2,N
1459103275.4,286046997.1,N
1459103295.3,286046998.4,N
1459103315.1,286046998.1,N
1459103316.0,286046998.1,N
1459103335.8,286047000.2,N
1459103355.7,286047001.9,N
1459103375.5,286047001.3,N
1459103395.3,286047002.1,N
1459103415.2,286047004.4,N
1459103435.9,286047003.6,N
1459103455.7,286047001.8,N
1459103475.5,286047001.9,N
1459103495.4,286047002.1,N
1459103515.2,286047002.2,N
1459103535.0,286047005.8,N
1459103535.9,286047005.8,N
1459103555.8,286047004.9,N
1459103575.6,286047006.8,N
1459103595.4,286047007.8,N
1459103615.3,286047007.9,N
1459103635.1,286047006.7,N
1459103636.0,286047006.7,N
1459103655.8,286047007.1,N
1459103675.7,286047009.2,N
1459103695.5,286047007.9,N
1459103715.3,286047008.9,N
1459103735.2,286047010.9,Y
1459103755.9,286047010.1,P
1459103775.7,286047009.8,N
1459103795.6,286047010.8,P
1459103815.4,286047010.7,Y
1459103835.2,286047003.1,P
1459103855.1,286047005.1,N
1459103856.0,286047005.1,N
1459103875.8,286047005.0,N
1459103895.6,286047001.7,N
1459103915.5,286047004.1,N
1459103935.3,286047004.6,N
1459103955.1,286047006.4,Y
1459103975.9,286047002.1,P
1459103995.7,286047001.6,N
1459104015.5,286047001.3,N
1459104035.4,286047005.2,Y
1459104055.2,286046998.2,P
1459104075.0,286046999.0,N
1459104075.9,286046999.0,N
1459104095.8,286046997.3,N
1459104115.6,286046996.5,N
1459104135.4,286046998.9,N
1459104155.2,286047001.0,N
1459104175.1,286047002.7,N
1459104176.0,286047002.7,N
1459104195.8,286047000.3,N
1459104215.6,286046999.3,N
1459104235.5,286047000.2,N
1459104255.3,286046996.5,N
1459104275.1,286046996.9,N
1459104295.9,286046997.0,N
1459104315.7,286047000.8,N
1459104335.5,286046998.6,N
1459104355.4,286046999.0,N
1459104375.2,286046995.4,N
1459104395.0,286046995.9,N
1459104395.9,286046995.9,N
1459104415.8,286046996.3,N
1459104435.6,286046997.7,N
1459104455.4,286046996.9,N
1459104475.2,286046999.1,N
1459104495.1,286047000.7,N
1459104496.0,286047000.7,N
1459104515.8,286046996.9,N
1459104535.6,286046997.8,N
1459104555.5,286046995.9,N
1459104575.3,286046993.8,Y
1459104595.1,286046997.4,P
1459104615.9,286046996.3,P
1459104635.7,286046992.3,P
1459104655.5,286046994.6,N
1459104675.4,286046992.6,Y
1459104695.2,286046995.1,P
1459104715.0,286046993.5,P
1459104715.9,286046993.5,P
1459104735.8,286046994.0,Y
1459104755.6,286047000.4,P
1459104775.4,286047002.3,N
1459104795.3,286047003.4,N
1459104815.1,286047001.1,N
1459104835.8,286047001.0,N
1459104855.7,286047001.9,N
1459104875.5,286047003.8,N
1459104895.3,286047004.1,N
1459104915.2,286047005.9,N
1459104935.9,286047003.3,N
1459104955.7,286047002.9,N
1459104975.6,286047003.0,N
1459104995.4,286047006.8,N
1459105015.2,286047006.6,N
1459105035.0,286047007.0,N
1459105035.9,286047007.0,N
1459105055.8,286047007.4,N
1459105075.6,286047007.0,N
1459105095.4,286047005.4,N
1459105115.3,286047005.7,N
1459105135.1,286047007.2,N
1459105155.8,286047006.8,N
1459105175.7,286047004.6,N
1459105195.5,286047005.2,N
